When you browse on this site, cookies collect data to enhance your experience and personalize the content and advertising you see.
Visit our Privacy Policy to learn more. By continuing to use the site, you agree to this use of cookies and data.
  • In Hungary
  • List of Countries
  • For 7 days
  • Water Temperature
  • Weather Map
  • News
  • Weather Widgets
  • user-avatar
    Login

    Hourly Weather Shishkino

    Today, 20 October, Sunday

    Time Temperature Precipitation Wind Pressure Humidity
    00:00 +12°C° 0 mm 2 mps 750 mmHg 84%
    01:00 +10°C° 0 mm 2 mps 750 mmHg 85%
    02:00 +10°C° 0 mm 2 mps 750 mmHg 86%
    03:00 +10°C° 0 mm 2 mps 750 mmHg 87%
    04:00 +10°C° 0 mm 2 mps 750 mmHg 89%
    05:00 +10°C° 0 mm 2 mps 750 mmHg 90%
    06:00 +10°C° 0 mm 2 mps 750 mmHg 89%
    07:00 +12°C° 0 mm 2 mps 750 mmHg 88%
    08:00 +12°C° 0 mm 3 mps 751 mmHg 87%
    09:00 +13°C° 0 mm 3 mps 751 mmHg 83%
    10:00 +14°C° 0 mm 3 mps 751 mmHg 78%
    11:00 +16°C° 0 mm 3 mps 751 mmHg 74%
    12:00 +17°C° 0 mm 3 mps 751 mmHg 71%
    13:00 +17°C° 0 mm 4 mps 751 mmHg 68%
    14:00 +18°C° 0 mm 4 mps 751 mmHg 65%
    15:00 +17°C° 0 mm 3 mps 751 mmHg 70%
    16:00 +14°C° 0 mm 3 mps 750 mmHg 76%
    17:00 +13°C° 0 mm 3 mps 750 mmHg 82%
    18:00 +13°C° 0 mm 3 mps 751 mmHg 83%
    19:00 +12°C° 0 mm 3 mps 751 mmHg 85%
    20:00 +12°C° 0 mm 3 mps 751 mmHg 86%
    21:00 +12°C° 0 mm 3 mps 751 mmHg 86%
    22:00 +12°C° 0 mm 3 mps 751 mmHg 85%
    23:00 +11°C° 0 mm 3 mps 751 mmHg 84%

    Tomorrow, 21 October, Monday

    Time Temperature Precipitation Wind Pressure Humidity
    00:00 +11°C° 0 mm 3 mps 751 mmHg 85%
    01:00 +11°C° 0 mm 3 mps 751 mmHg 85%
    02:00 +10°C° 0 mm 3 mps 751 mmHg 86%
    03:00 +10°C° 0 mm 3 mps 751 mmHg 86%
    04:00 +10°C° 0 mm 3 mps 750 mmHg 86%
    05:00 +9°C° 0 mm 3 mps 750 mmHg 85%
    06:00 +10°C° 0 mm 4 mps 750 mmHg 82%
    07:00 +11°C° 0 mm 4 mps 750 mmHg 78%
    08:00 +11°C° 0 mm 4 mps 750 mmHg 75%
    09:00 +13°C° 0 mm 4 mps 750 mmHg 70%
    10:00 +14°C° 0 mm 5 mps 750 mmHg 66%
    11:00 +15°C° 0 mm 5 mps 750 mmHg 61%
    12:00 +16°C° 0 mm 5 mps 750 mmHg 61%
    13:00 +16°C° 0 mm 5 mps 750 mmHg 62%
    14:00 +16°C° 0 mm 5 mps 749 mmHg 62%
    15:00 +16°C° 0 mm 5 mps 749 mmHg 66%
    16:00 +15°C° 0 mm 4 mps 749 mmHg 70%
    17:00 +14°C° 0 mm 4 mps 749 mmHg 75%
    18:00 +13°C° 0 mm 4 mps 749 mmHg 78%
    19:00 +13°C° 0 mm 3 mps 749 mmHg 80%
    20:00 +12°C° 0 mm 3 mps 749 mmHg 83%
    21:00 +12°C° 0 mm 3 mps 749 mmHg 85%
    22:00 +12°C° 0 mm 3 mps 749 mmHg 87%
    23:00 +11°C° 0 mm 3 mps 749 mmHg 90%

    Day after tomorrow, 22 October, Tuesday

    Time Temperature Precipitation Wind Pressure Humidity
    00:00 +12°C° 0 mm 2 mps 749 mmHg 91%
    01:00 +12°C° 0 mm 2 mps 750 mmHg 93%
    02:00 +12°C° 0 mm 1 mps 750 mmHg 94%
    03:00 +12°C° 0 mm 2 mps 750 mmHg 95%
    04:00 +12°C° 0 mm 2 mps 750 mmHg 96%
    05:00 +12°C° 0 mm 2 mps 750 mmHg 96%
    06:00 +12°C° 0 mm 2 mps 751 mmHg 94%
    07:00 +12°C° 0 mm 2 mps 751 mmHg 91%
    08:00 +12°C° 0 mm 2 mps 751 mmHg 88%
    09:00 +13°C° 0 mm 2 mps 752 mmHg 81%
    10:00 +14°C° 0 mm 2 mps 752 mmHg 74%
    11:00 +15°C° 0 mm 2 mps 752 mmHg 67%
    12:00 +15°C° 0 mm 2 mps 752 mmHg 63%
    13:00 +16°C° 0 mm 2 mps 752 mmHg 59%
    14:00 +16°C° 0 mm 1 mps 752 mmHg 56%
    15:00 +15°C° 0 mm 1 mps 752 mmHg 60%
    16:00 +13°C° 0 mm 1 mps 752 mmHg 65%
    17:00 +12°C° 0 mm 1 mps 752 mmHg 69%
    18:00 +12°C° 0 mm 1 mps 752 mmHg 71%
    19:00 +11°C° 0 mm 1 mps 752 mmHg 72%
    20:00 +11°C° 0 mm 1 mps 752 mmHg 74%
    21:00 +11°C° 0 mm 1 mps 752 mmHg 75%
    22:00 +11°C° 0 mm 1 mps 752 mmHg 76%
    23:00 +9°C° 0 mm 2 mps 752 mmHg 77%

    23 October, Wednesday

    Time Temperature Precipitation Wind Pressure Humidity
    00:00 +9°C° 0 mm 2 mps 752 mmHg 80%
    01:00 +9°C° 0 mm 2 mps 752 mmHg 82%
    02:00 +9°C° 0 mm 2 mps 751 mmHg 85%
    03:00 +9°C° 0 mm 3 mps 751 mmHg 88%
    04:00 +9°C° 0 mm 3 mps 751 mmHg 91%
    05:00 +9°C° 0 mm 3 mps 751 mmHg 94%
    06:00 +9°C° 0 mm 3 mps 751 mmHg 93%
    07:00 +10°C° 0 mm 3 mps 750 mmHg 93%
    08:00 +10°C° 0 mm 3 mps 750 mmHg 93%
    09:00 +12°C° 0 mm 3 mps 750 mmHg 88%
    10:00 +13°C° 0 mm 3 mps 750 mmHg 83%
    11:00 +14°C° 0 mm 3 mps 750 mmHg 78%
    12:00 +15°C° 0 mm 4 mps 749 mmHg 76%
    13:00 +17°C° 0 mm 4 mps 749 mmHg 74%
    14:00 +17°C° 0 mm 4 mps 749 mmHg 72%
    15:00 +15°C° 0 mm 4 mps 748 mmHg 77%
    16:00 +14°C° 0 mm 4 mps 748 mmHg 82%
    17:00 +13°C° 0 mm 3 mps 748 mmHg 87%
    18:00 +13°C° 0 mm 3 mps 748 mmHg 88%
    19:00 +12°C° 0 mm 3 mps 748 mmHg 89%
    20:00 +12°C° 0 mm 3 mps 748 mmHg 90%
    21:00 +12°C° 0 mm 3 mps 748 mmHg 91%
    22:00 +11°C° 0 mm 3 mps 748 mmHg 91%
    23:00 +11°C° 0 mm 3 mps 747 mmHg 91%

    24 October, Thursday

    Time Temperature Precipitation Wind Pressure Humidity
    00:00 +12°C° 0 mm 2 mps 747 mmHg 91%
    01:00 +12°C° 0 mm 2 mps 747 mmHg 91%
    02:00 +12°C° 0 mm 2 mps 747 mmHg 92%
    03:00 +10°C° 0 mm 2 mps 747 mmHg 92%
    04:00 +10°C° 0 mm 2 mps 747 mmHg 92%
    05:00 +11°C° 0 mm 1 mps 747 mmHg 92%
    06:00 +11°C° 0 mm 1 mps 747 mmHg 91%
    07:00 +12°C° 0 mm 1 mps 747 mmHg 89%
    08:00 +12°C° 0 mm 1 mps 747 mmHg 87%
    09:00 +13°C° 0 mm 1 mps 747 mmHg 83%
    10:00 +14°C° 0 mm 1 mps 747 mmHg 78%
    11:00 +15°C° 0 mm 1 mps 747 mmHg 74%
    12:00 +15°C° 0 mm 1 mps 747 mmHg 72%
    13:00 +16°C° 0 mm 1 mps 747 mmHg 71%
    14:00 +16°C° 0 mm 1 mps 747 mmHg 70%
    15:00 +15°C° 0 mm 1 mps 747 mmHg 75%
    16:00 +14°C° 0 mm 1 mps 747 mmHg 80%
    17:00 +13°C° 0 mm 1 mps 747 mmHg 85%
    18:00 +13°C° 0 mm 1 mps 748 mmHg 86%
    19:00 +12°C° 0 mm 1 mps 748 mmHg 88%
    20:00 +12°C° 0 mm 1 mps 748 mmHg 89%
    21:00 +12°C° 0 mm 1 mps 748 mmHg 90%
    22:00 +11°C° 0 mm 1 mps 748 mmHg 90%
    23:00 +11°C° 0 mm 1 mps 748 mmHg 91%

    25 October, Friday

    Time Temperature Precipitation Wind Pressure Humidity
    00:00 +11°C° 0 mm 1 mps 748 mmHg 91%
    01:00 +10°C° 0 mm 2 mps 748 mmHg 92%
    02:00 +9°C° 0 mm 2 mps 749 mmHg 92%
    03:00 +9°C° 0 mm 2 mps 749 mmHg 93%
    04:00 +9°C° 0 mm 2 mps 749 mmHg 93%
    05:00 +10°C° 0 mm 1 mps 749 mmHg 93%
    06:00 +9°C° 0 mm 2 mps 749 mmHg 92%
    07:00 +10°C° 0 mm 2 mps 749 mmHg 90%
    08:00 +10°C° 0 mm 2 mps 749 mmHg 89%
    09:00 +13°C° 0 mm 2 mps 749 mmHg 83%
    10:00 +13°C° 0 mm 3 mps 750 mmHg 76%
    11:00 +16°C° 0 mm 3 mps 750 mmHg 70%
    12:00 +16°C° 0 mm 3 mps 750 mmHg 67%
    13:00 +17°C° 0 mm 3 mps 750 mmHg 64%
    14:00 +17°C° 0 mm 3 mps 749 mmHg 62%
    15:00 +16°C° 0 mm 3 mps 749 mmHg 66%
    16:00 +15°C° 0 mm 2 mps 749 mmHg 70%
    17:00 +13°C° 0 mm 2 mps 749 mmHg 75%
    18:00 +13°C° 0 mm 2 mps 749 mmHg 76%
    19:00 +12°C° 0 mm 2 mps 749 mmHg 77%
    20:00 +11°C° 0 mm 3 mps 750 mmHg 77%
    21:00 +10°C° 0 mm 2 mps 750 mmHg 78%
    22:00 +10°C° 0 mm 2 mps 750 mmHg 79%
    23:00 +10°C° 0 mm 2 mps 750 mmHg 80%
    Show more